Location: Arroyo Bat�n
(40.5833°N, 4.1000°W)
Time: 10:52:19
(UTC+00:00)

Daily predictions for brighter satellites

Satellite Brightness Start Highest point End
(mag) Time Altitude Azimuth Time Altitude Azimuth Time Altitude Azimuth
Meteor 1-20 Rocket 4.4 17:08:11 10° N 17:14:04 87° W 17:19:54 10° S
Cosmos 1340 Rocket 4.1 17:11:12 10° NNW 17:15:07 46° W 17:19:00 10° SSW
Cosmos 2279 Rocket 4.5 17:09:38 10° SSE 17:15:17 39° E 17:20:57 10° NNE
ADEOS 4.2 17:10:37 10° S 17:15:47 62° WSW 17:20:58 10° NNW
Cosmos 841 Rocket 3.6 17:10:56 10° SSW 17:16:06 86° WNW 17:21:16 10° NNE
ATLAS 5 CENTAUR R/B 3.9 17:11:32 10° NNW 17:16:22 17° N 17:19:02 10° NE
Meteor PRIRODA 3.5 17:13:23 10° SSE 17:16:59 77° ENE 17:20:37 10° N
USA 229 DEB 4.5 17:11:17 10° NW 17:18:42 69° WSW 17:26:29 10° SSE
USA 229 4.5 17:11:23 10° NW 17:18:47 69° WSW 17:26:35 10° SSE
Cosmos 1627 Rocket 4.5 17:13:05 10° N 17:19:12 67° E 17:25:16 10° SSE
Cosmos 1743 Rocket 4.2 17:17:19 10° NNW 17:21:35 59° W 17:25:50 10° S
CZ-4C R/B 3.2 17:15:50 10° NNW 17:23:03 56° NE 17:31:22 10° SE
Lacrosse 5 rocket 2.4 17:21:13 10° NNW 17:24:29 24° NE 17:27:52 10° E
Cosmos 2208 Rocket 4.4 17:20:26 10° S 17:25:35 47° ESE 17:30:47 10° NNE
Cosmos 1697 Rocket 3.4 17:21:02 10° NNW 17:26:34 60° WSW 17:32:03 10° S
Cosmos 372 Rocket 4.0 17:21:26 10° NNW 17:26:41 69° ENE 17:31:54 10° SSE
Tiangong 3.6 17:26:16 10° S 17:27:33 12° SE 17:28:50 10° ESE
Cosmos 1937 Rocket 3.9 17:22:56 10° NNW 17:28:15 74° WSW 17:33:31 10° S
AQUARIUS 4.4 17:24:15 10° SE 17:28:33 48° ENE 17:32:52 10° N
Cosmos 2322 Rocket 3.6 17:25:22 10° N 17:29:03 17° NE 17:32:43 10° E
Cosmos 1328 Rocket 4.3 17:25:24 10° SSE 17:29:22 33° E 17:33:22 10° NNE
USA 234 3.8 17:25:20 10° E 17:31:17 39° NNE 17:37:14 10° NW
Cosmos 1980 Rocket 2.2 17:27:12 10° NNW 17:32:52 78° ENE 17:38:28 10° SSE
Cosmos 1666 Rocket 3.9 17:28:38 10° N 17:32:53 44° ENE 17:37:04 10° SSE
CORIOLIS 4.2 17:28:43 10° SSE 17:34:00 60° ENE 17:39:20 10° N
Cosmos 1812 2.7 17:31:22 10° S 17:35:10 63° E 17:38:59 10° NNE
X-37B 0.9 17:32:39 10° SW 17:35:27 48° SSE 17:37:49 13° ENE
PSLV R/B 4.2 17:33:19 10° SE 17:36:42 36° ENE 17:40:10 10° N
DEBRIS 4.2 17:35:15 10° SSE 17:36:45 15° ESE 17:38:35 11° E
H-2A R/B 2.5 17:32:46 10° SE 17:37:27 37° ENE 17:42:03 10° N
Cosmos 1634 Rocket 4.1 17:31:15 10° S 17:37:35 87° W 17:43:57 10° N
Cosmos 1125 Rocket 4.5 17:33:22 10° N 17:37:40 25° ENE 17:41:56 10° ESE
Okean O Rocket 2.9 17:36:15 10° ESE 17:39:27 20° ENE 17:42:39 10° NNE
Cosmos 2026 Rocket 4.0 17:33:24 10° N 17:39:32 88° W 17:45:35 10° S
Cosmos 2369 4.2 17:38:57 10° NNW 17:44:38 67° WSW 17:50:17 10° S
CZ-2C R/B 3.9 17:40:08 10° S 17:44:52 51° W 17:49:30 10° NNW
Meteor 2-21 Rocket 4.4 17:40:10 10° N 17:46:15 73° E 17:52:17 10° SSE
Sich 1 3.6 17:44:03 10° NNW 17:48:19 63° W 17:52:35 10° S
Cosmos 2082 Rocket 3.0 17:43:44 10° SW 17:49:15 52° WNW 17:54:48 10° NNE
ARGOS 3.9 17:44:46 10° SE 17:49:25 30° ENE 17:54:05 10° N
SL-16 R/B 2.9 17:45:04 10° N 17:50:04 31° ENE 17:55:01 10° ESE
SKYMED 2 4.2 17:48:18 10° NNE 17:52:17 34° E 17:56:13 10° SSE
SMAP 3.2 17:48:05 10° S 17:52:44 79° WSW 17:57:25 10° NNW
deb Chang Zheng 4 4.3 17:51:07 10° SE 17:54:54 31° ENE 17:58:41 10° N
Meteor 1-5 Rocket 4.3 17:49:45 10° N 17:55:43 72° ENE 18:01:31 10° SSE
NOAA 6 4.2 17:51:03 10° S 17:56:11 78° WSW 18:01:19 10° NNW
COSMOS 2455 4.1 17:52:07 10° WSW 17:57:40 38° NW 18:03:15 10° NNE
CZ-4B DEB 4.3 18:01:14 10° SSE 18:06:45 84° WSW 18:12:16 10° NNW
Cosmos 2278 3.9 18:01:24 10° NNW 18:07:07 78° WSW 18:12:47 10° SSE
USA 305 4.1 18:04:26 10° NNW 18:07:55 24° NNE 18:08:52 22° NE
Cosmos 2333 Rocket 4.1 18:06:58 10° NNE 18:08:05 12° NNE 18:08:05 12° NNE
Cosmos 1356 Rocket 4.0 18:07:13 10° N 18:11:06 34° ENE 18:15:00 10° SE
Cosmos 2180 Rocket 4.5 18:06:47 10° S 18:13:08 86° E 18:19:25 10° N
CZ-2C R/B 2.5 18:08:24 10° NNE 18:13:33 63° ESE 18:18:39 10° S
Aureole 3 Rocket 3.9 18:11:49 10° SSE 18:15:51 37° E 18:21:18 10° NNE
Cosmos 1515 Rocket 3.6 18:12:05 10° S 18:16:26 60° E 18:20:26 12° NNE
Cosmos 44 Rocket 3.1 18:13:13 10° NNW 18:18:07 81° ENE 18:22:50 10° SE
Cosmos 921 Rocket 3.1 18:14:38 10° SSW 18:18:49 74° WNW 18:22:47 12° NNE
Cosmos 1655 Rocket 4.0 18:12:58 10° N 18:19:17 62° E 18:25:32 10° SSE
CZ-4 R/B 4.5 18:20:04 10° SSE 18:24:04 52° ENE 18:28:05 10° N
CZ-2D R/B 4.1 18:25:02 10° S 18:28:44 52° W 18:32:29 10° NNW
CZ-4B R/B 3.1 18:27:20 10° SSE 18:32:44 88° ENE 18:38:05 10° NNW
YAOGAN 3 4.4 18:30:03 10° SSE 18:34:22 74° ENE 18:38:44 10° N
CZ-4C R/B 3.8 18:36:51 35° SSE 18:36:51 35° SSE 18:39:07 10° S
Cosmos 2298 Rocket 4.0 18:33:07 10° NNW 18:38:28 86° WSW 18:43:48 10° SSE
COSMO-SKYMED 1 2.8 18:36:23 12° N 18:40:24 68° WNW 18:44:42 10° SSW
USA 306 3.8 18:36:33 10° NW 18:39:52 32° NNE 18:39:52 32° NNE
Meteor 2-15 Rocket 4.4 18:34:48 10° S 18:40:55 89° W 18:47:04 10° N
APEX 4.2 18:38:10 10° SW 18:41:45 38° WNW 18:43:02 27° NNW
USA 267 4.1 18:37:47 19° NNE 18:42:05 41° NNW 18:48:07 10° W
Meteor 1-27 Rocket 3.5 18:36:46 10° S 18:42:15 73° E 18:46:30 17° NNE
SJ-11-01 4.2 18:37:46 10° SSE 18:42:31 88° W 18:47:16 10° NNW
ISS -1.0 18:40:04 10° W 18:42:32 19° SW 18:45:01 10° S
Landsat 5 3.2 18:41:36 39° NNE 18:43:01 88° ESE 18:46:55 10° SSW
Genesis I 3.7 18:40:01 10° SSW 18:43:13 45° SSE 18:43:13 45° SSE
Cosmos 1833 4.5 18:39:37 10° S 18:44:50 42° ESE 18:45:04 42° E
Cosmos 2360 Rocket 2.7 18:45:39 10° N 18:50:08 39° NE 18:50:08 39° NE
CZ-2C R/B 2.2 18:48:59 10° WSW 18:52:59 38° S 18:53:23 37° SSE
Cosmos 2237 4.1 18:48:54 10° NNW 18:54:33 61° ENE 18:55:53 48° ESE
Cosmos 1818 4.4 18:50:19 10° NW 18:55:36 51° WSW 19:00:49 10° S
SL-08 RB Rocket 3.7 18:56:01 10° SSE 19:00:39 84° W 19:05:15 10° NNW
DMSP B5D2-2 3.9 19:00:33 64° ENE 19:01:03 68° ESE 19:06:15 10° S
USA 307 4.2 18:57:03 10° NW 18:59:35 30° NNW 18:59:35 30° NNW
Lacrosse 5 rocket 2.1 18:59:50 10° NW 19:03:44 48° SW 19:04:38 40° S
Tiangong 3.2 19:00:47 10° WSW 19:02:20 25° SW 19:02:20 25° SW
Cosmos 773 Rocket 4.4 19:02:09 10° S 19:06:16 49° SSE 19:06:16 49° SSE
Cosmos 1933 Rocket 4.2 19:04:03 10° NNW 19:08:17 53° W 19:12:29 10° S
X-37B 3.4 19:08:13 10° W 19:09:02 16° WNW 19:09:02 16° WNW
CZ-4C R/B 4.4 19:04:38 10° NW 19:11:39 39° WSW 19:19:25 10° S
NOAA 15 4.4 19:07:04 10° SSE 19:12:21 87° ENE 19:17:40 10° NNW
Cosmos 2322 Rocket 2.2 19:08:03 10° NNW 19:13:47 79° WSW 19:17:09 26° SSE
USA 234 3.4 19:10:00 26° SE 19:13:59 73° SW 19:20:32 10° NW
Okean O Rocket 3.0 19:11:20 10° SSW 19:15:30 39° W 19:19:42 10° NNW
H-2A R/B 4.2 19:12:45 10° SSW 19:16:56 25° W 19:21:03 10° NW
Cosmos 1867 4.3 19:12:26 10° SW 19:17:43 50° NW 19:19:09 40° N
ATLAS 2AS CENTAUR R/B 4.5 19:15:31 10° NNW 19:18:45 17° N 19:18:45 17° N
NOSS 3-3 (A) 4.0 19:19:17 10° SW 19:24:51 66° NW 19:25:51 56° N
NOSS 3-3 (C) 4.0 19:19:21 10° SW 19:24:57 66° NW 19:25:55 57° N
SL-16 R/B 3.5 19:29:00 10° NW 19:34:12 39° WSW 19:39:25 10° S
Cosmos 2333 Rocket 4.3 19:48:55 10° NNW 19:50:08 17° NNW 19:50:08 17° NNW
